Time,TemperatureF,DewpointF,PressureIn,WindDirection,WindDirectionDegrees,WindSpeedMPH,WindSpeedGustMPH,Humidity,HourlyPrecipIn,Conditions,Clouds,dailyrainin,SoftwareType,DateUTC
2013-06-24 00:10:00,70.6,63.8,29.58,South,171,4.0,14.0,79,0.00,,,0.00,Wunderground v.1.13,2013-06-24 06:10:00,
2013-06-24 00:20:00,71.1,60.8,29.55,SE,138,4.0,4.0,70,0.00,,,0.00,Wunderground v.1.13,2013-06-24 06:20:00,
2013-06-24 00:29:00,70.4,62.1,29.55,SSE,167,2.0,2.0,75,0.00,,,0.00,Wunderground v.1.13,2013-06-24 06:29:00,
2013-06-24 00:40:00,71.8,54.8,29.54,SSE,166,7.0,7.0,55,0.00,,,0.00,Wunderground v.1.13,2013-06-24 06:40:00,
2013-06-24 00:50:00,71.6,57.9,29.56,SSE,158,10.0,10.0,62,0.00,,,0.00,Wunderground v.1.13,2013-06-24 06:50:00,
2013-06-24 00:54:00,71.8,58.5,29.56,SE,146,9.0,9.0,63,0.00,,,0.00,Wunderground v.1.13,2013-06-24 06:54:00,
2013-06-24 01:00:00,70.1,59.5,29.56,South,190,11.0,11.0,69,0.00,,,0.00,Wunderground v.1.13,2013-06-24 07:00:00,
2013-06-24 01:05:00,69.3,59.5,29.58,South,170,9.0,9.0,71,0.00,,,0.00,Wunderground v.1.13,2013-06-24 07:05:00,
2013-06-24 01:15:00,68.3,57.3,29.58,South,178,6.0,6.0,68,0.00,,,0.00,Wunderground v.1.13,2013-06-24 07:15:00,
2013-06-24 01:20:00,67.9,56.9,29.59,South,177,4.0,4.0,68,0.00,,,0.00,Wunderground v.1.13,2013-06-24 07:20:00,
2013-06-24 01:30:00,67.4,56.1,29.59,South,173,2.0,2.0,67,0.00,,,0.00,Wunderground v.1.13,2013-06-24 07:30:00,
2013-06-24 01:40:00,66.9,56.4,29.59,South,183,4.0,4.0,69,0.00,,,0.00,Wunderground v.1.13,2013-06-24 07:40:00,
2013-06-24 01:44:00,66.8,56.3,29.59,SW,221,7.0,7.0,69,0.00,,,0.00,Wunderground v.1.13,2013-06-24 07:44:00,
2013-06-24 01:55:00,66.1,56.0,29.59,SSW,213,7.0,7.0,70,0.00,,,0.01,Wunderground v.1.13,2013-06-24 07:55:00,
2013-06-24 02:05:00,66.0,56.3,29.60,SSW,207,6.0,14.0,71,0.00,,,0.01,Wunderground v.1.13,2013-06-24 08:05:00,
2013-06-24 02:15:00,65.5,56.6,29.60,South,188,7.0,14.0,73,0.00,,,0.01,Wunderground v.1.13,2013-06-24 08:15:00,
2013-06-24 02:20:00,65.6,56.3,29.62,SSE,157,6.0,6.0,72,0.00,,,0.01,Wunderground v.1.13,2013-06-24 08:20:00,
2013-06-24 02:25:00,65.5,56.2,29.62,SSW,206,3.0,24.0,72,0.00,,,0.02,Wunderground v.1.13,2013-06-24 08:25:00,
2013-06-24 02:30:00,66.3,55.4,29.62,SSW,198,4.0,4.0,68,0.00,,,0.02,Wunderground v.1.13,2013-06-24 08:30:00,
2013-06-24 02:40:00,68.9,53.5,29.61,SSE,164,7.0,7.0,58,0.00,,,0.02,Wunderground v.1.13,2013-06-24 08:40:00,
2013-06-24 02:50:00,67.3,55.1,29.61,SSW,200,6.0,14.0,65,0.00,,,0.02,Wunderground v.1.13,2013-06-24 08:50:00,
2013-06-24 02:55:00,67.8,54.7,29.61,South,188,5.0,5.0,63,0.00,,,0.02,Wunderground v.1.13,2013-06-24 08:55:00,
2013-06-24 03:09:00,68.3,54.3,29.61,SSW,200,6.0,6.0,61,0.00,,,0.02,Wunderground v.1.13,2013-06-24 09:09:00,
2013-06-24 03:15:00,68.9,53.5,29.61,South,177,7.0,7.0,58,0.00,,,0.02,Wunderground v.1.13,2013-06-24 09:15:00,
2013-06-24 03:20:00,69.1,53.2,29.60,SSW,205,6.0,14.0,57,0.00,,,0.02,Wunderground v.1.13,2013-06-24 09:20:00,
2013-06-24 03:24:00,69.1,53.2,29.60,SW,228,5.0,5.0,57,0.00,,,0.02,Wunderground v.1.13,2013-06-24 09:24:00,
2013-06-24 03:30:00,69.3,52.9,29.60,WSW,244,6.0,6.0,56,0.00,,,0.02,Wunderground v.1.13,2013-06-24 09:30:00,
2013-06-24 03:39:00,71.5,51.3,29.57,NNW,346,6.0,6.0,49,0.00,,,0.02,Wunderground v.1.13,2013-06-24 09:39:00,
2013-06-24 03:44:00,70.9,51.9,29.57,NW,318,3.0,3.0,51,0.00,,,0.02,Wunderground v.1.13,2013-06-24 09:44:00,
2013-06-24 03:50:00,70.4,51.4,29.48,NW,325,0.0,14.0,51,0.00,,,0.02,Wunderground v.1.13,2013-06-24 09:50:00,
2013-06-24 03:55:00,69.9,53.5,29.48,NNW,343,0.0,14.0,56,0.00,,,0.02,Wunderground v.1.13,2013-06-24 09:55:00,
2013-06-24 04:05:00,72.8,47.7,29.53,West,263,2.0,2.0,41,0.00,,,0.02,Wunderground v.1.13,2013-06-24 10:05:00,
2013-06-24 04:15:00,74.9,47.6,29.53,SW,220,0.0,14.0,38,0.00,,,0.02,Wunderground v.1.13,2013-06-24 10:15:00,
2013-06-24 04:19:00,73.9,50.6,29.48,SSE,149,0.0,14.0,44,0.00,,,0.02,Wunderground v.1.13,2013-06-24 10:19:00,
2013-06-24 04:25:00,73.0,51.0,29.48,SSW,211,0.0,14.0,46,0.00,,,0.02,Wunderground v.1.13,2013-06-24 10:25:00,
2013-06-24 04:35:00,71.5,51.9,29.48,South,175,1.0,1.0,50,0.00,,,0.02,Wunderground v.1.13,2013-06-24 10:35:00,
2013-06-24 04:39:00,72.7,48.3,29.48,SSW,200,1.0,1.0,42,0.00,,,0.02,Wunderground v.1.13,2013-06-24 10:39:00,
2013-06-24 04:44:00,73.3,48.8,29.48,SSW,198,1.0,1.0,42,0.00,,,0.02,Wunderground v.1.13,2013-06-24 10:44:00,
2013-06-24 04:50:00,73.3,48.8,29.48,SSW,208,0.0,14.0,42,0.00,,,0.02,Wunderground v.1.13,2013-06-24 10:50:00,
2013-06-24 04:55:00,73.0,51.0,29.48,SW,220,1.0,1.0,46,0.00,,,0.02,Wunderground v.1.13,2013-06-24 10:55:00,
2013-06-24 05:00:00,72.3,49.8,29.48,South,188,4.0,14.0,45,0.00,,,0.02,Wunderground v.1.13,2013-06-24 11:00:00,
2013-06-24 05:05:00,72.3,49.8,29.49,SSW,198,5.0,14.0,45,0.00,,,0.02,Wunderground v.1.13,2013-06-24 11:05:00,
2013-06-24 05:09:00,71.8,50.5,29.49,SSE,154,2.0,2.0,47,0.00,,,0.02,Wunderground v.1.13,2013-06-24 11:09:00,
2013-06-24 05:14:00,71.3,51.7,29.49,SSE,154,0.0,14.0,50,0.00,,,0.02,Wunderground v.1.13,2013-06-24 11:14:00,
2013-06-24 05:20:00,70.4,52.4,29.45,NE,50,0.0,14.0,53,0.00,,,0.02,Wunderground v.1.13,2013-06-24 11:20:00,
2013-06-24 05:25:00,69.6,52.2,29.45,NE,51,0.0,14.0,54,0.00,,,0.02,Wunderground v.1.13,2013-06-24 11:25:00,
2013-06-24 05:29:00,69.1,51.8,29.45,NE,52,0.0,14.0,54,0.00,,,0.02,Wunderground v.1.13,2013-06-24 11:29:00,
2013-06-24 05:34:00,68.9,52.1,29.43,NE,51,0.0,14.0,55,0.00,,,0.02,Wunderground v.1.13,2013-06-24 11:34:00,
2013-06-24 05:39:00,68.4,52.6,29.43,NNE,29,0.0,14.0,57,0.00,,,0.02,Wunderground v.1.13,2013-06-24 11:39:00,
2013-06-24 05:45:00,67.9,52.1,29.43,NW,311,1.0,1.0,57,0.00,,,0.02,Wunderground v.1.13,2013-06-24 11:45:00,
2013-06-24 05:54:00,67.8,52.9,29.42,NNE,19,4.0,4.0,59,0.00,,,0.02,Wunderground v.1.13,2013-06-24 11:54:00,
2013-06-24 05:59:00,67.6,53.2,29.42,North,360,3.0,3.0,60,0.00,,,0.02,Wunderground v.1.13,2013-06-24 11:59:00,
2013-06-24 06:10:00,67.4,53.0,29.44,ESE,118,1.0,1.0,60,0.00,,,0.02,Wunderground v.1.13,2013-06-24 12:10:00,
2013-06-24 06:15:00,67.8,52.5,29.44,SE,134,1.0,1.0,58,0.00,,,0.02,Wunderground v.1.13,2013-06-24 12:15:00,
2013-06-24 06:25:00,68.9,52.1,29.49,East,84,0.0,14.0,55,0.00,,,0.02,Wunderground v.1.13,2013-06-24 12:25:00,
2013-06-24 06:30:00,69.1,52.2,29.49,SE,132,0.0,14.0,55,0.00,,,0.02,Wunderground v.1.13,2013-06-24 12:30:00,
2013-06-24 06:35:00,68.9,52.6,29.51,SE,132,0.0,14.0,56,0.00,,,0.02,Wunderground v.1.13,2013-06-24 12:35:00,
2013-06-24 06:45:00,68.1,53.2,29.51,SSE,165,0.0,14.0,59,0.00,,,0.02,Wunderground v.1.13,2013-06-24 12:45:00,
2013-06-24 06:50:00,67.8,53.4,29.51,SE,136,0.0,14.0,60,0.00,,,0.02,Wunderground v.1.13,2013-06-24 12:50:00,
2013-06-24 06:55:00,67.4,53.9,29.51,SE,134,0.0,14.0,62,0.00,,,0.02,Wunderground v.1.13,2013-06-24 12:55:00,
2013-06-24 06:59:00,67.3,54.7,29.51,SE,134,0.0,14.0,64,0.00,,,0.02,Wunderground v.1.13,2013-06-24 12:59:00,
2013-06-24 07:09:00,66.8,54.2,29.51,SE,134,0.0,14.0,64,0.00,,,0.02,Wunderground v.1.13,2013-06-24 13:09:00,
2013-06-24 07:20:00,66.8,55.1,29.53,SE,144,0.0,14.0,66,0.00,,,0.02,Wunderground v.1.13,2013-06-24 13:20:00,
2013-06-24 07:24:00,66.9,55.2,29.53,SE,146,0.0,14.0,66,0.00,,,0.02,Wunderground v.1.13,2013-06-24 13:24:00,
2013-06-24 07:30:00,66.9,55.2,29.53,SSW,207,0.0,14.0,66,0.00,,,0.02,Wunderground v.1.13,2013-06-24 13:30:00,
2013-06-24 07:35:00,67.1,54.9,29.54,SSW,196,0.0,14.0,65,0.00,,,0.02,Wunderground v.1.13,2013-06-24 13:35:00,
2013-06-24 07:40:00,67.3,55.1,29.54,South,184,0.0,14.0,65,0.00,,,0.02,Wunderground v.1.13,2013-06-24 13:40:00,
2013-06-24 07:45:00,67.6,55.8,29.54,WSW,241,1.0,1.0,66,0.00,,,0.02,Wunderground v.1.13,2013-06-24 13:45:00,
2013-06-24 07:50:00,67.9,55.7,29.54,SSW,213,3.0,14.0,65,0.00,,,0.02,Wunderground v.1.13,2013-06-24 13:50:00,
2013-06-24 07:54:00,68.4,56.2,29.54,SSW,207,2.0,2.0,65,0.00,,,0.02,Wunderground v.1.13,2013-06-24 13:54:00,
2013-06-24 07:59:00,68.8,56.6,29.54,SSW,206,3.0,14.0,65,0.00,,,0.02,Wunderground v.1.13,2013-06-24 13:59:00,
2013-06-24 08:05:00,69.1,56.0,29.54,SSW,200,4.0,14.0,63,0.00,,,0.02,Wunderground v.1.13,2013-06-24 14:05:00,
2013-06-24 08:10:00,69.3,56.2,29.54,SSW,196,5.0,5.0,63,0.00,,,0.02,Wunderground v.1.13,2013-06-24 14:10:00,
2013-06-24 08:15:00,69.6,56.4,29.54,SSW,199,4.0,14.0,63,0.00,,,0.02,Wunderground v.1.13,2013-06-24 14:15:00,
2013-06-24 08:25:00,70.3,56.2,29.54,SW,215,3.0,14.0,61,0.00,,,0.02,Wunderground v.1.13,2013-06-24 14:25:00,
2013-06-24 08:34:00,70.8,56.2,29.54,SW,234,6.0,14.0,60,0.00,,,0.02,Wunderground v.1.13,2013-06-24 14:34:00,
2013-06-24 08:40:00,70.9,55.4,29.54,SSW,213,5.0,5.0,58,0.00,,,0.02,Wunderground v.1.13,2013-06-24 14:40:00,
2013-06-24 08:45:00,71.3,55.8,29.54,SSW,199,5.0,5.0,58,0.00,,,0.02,Wunderground v.1.13,2013-06-24 14:45:00,
2013-06-24 08:50:00,71.5,55.9,29.54,WSW,251,4.0,14.0,58,0.00,,,0.02,Wunderground v.1.13,2013-06-24 14:50:00,
2013-06-24 08:59:00,72.5,55.9,29.54,South,190,2.0,14.0,56,0.00,,,0.02,Wunderground v.1.13,2013-06-24 14:59:00,
2013-06-24 09:04:00,73.0,55.4,29.54,WSW,240,3.0,14.0,54,0.00,,,0.02,Wunderground v.1.13,2013-06-24 15:04:00,
2013-06-24 09:10:00,73.7,56.5,29.54,SSW,211,2.0,2.0,55,0.00,,,0.02,Wunderground v.1.13,2013-06-24 15:10:00,
2013-06-24 09:20:00,74.6,55.3,29.53,SSW,203,2.0,14.0,51,0.00,,,0.02,Wunderground v.1.13,2013-06-24 15:20:00,
2013-06-24 09:24:00,74.9,54.4,29.53,SW,215,1.0,14.0,49,0.00,,,0.02,Wunderground v.1.13,2013-06-24 15:24:00,
2013-06-24 09:35:00,75.6,54.5,29.53,SSW,209,2.0,14.0,48,0.00,,,0.02,Wunderground v.1.13,2013-06-24 15:35:00,
2013-06-24 09:40:00,76.0,53.7,29.53,South,178,1.0,1.0,46,0.00,,,0.02,Wunderground v.1.13,2013-06-24 15:40:00,
2013-06-24 09:45:00,76.1,53.8,29.53,SSW,195,1.0,1.0,46,0.00,,,0.02,Wunderground v.1.13,2013-06-24 15:45:00,
2013-06-24 09:50:00,76.3,54.6,29.53,WSW,257,0.0,14.0,47,0.00,,,0.02,Wunderground v.1.13,2013-06-24 15:50:00,
2013-06-24 09:55:00,76.8,55.0,29.53,SW,223,1.0,1.0,47,0.00,,,0.02,Wunderground v.1.13,2013-06-24 15:55:00,
2013-06-24 09:59:00,76.7,55.0,29.53,SW,217,0.0,14.0,47,0.00,,,0.02,Wunderground v.1.13,2013-06-24 15:59:00,
2013-06-24 10:10:00,76.7,55.0,29.52,SW,232,1.0,1.0,47,0.00,,,0.02,Wunderground v.1.13,2013-06-24 16:10:00,
2013-06-24 10:15:00,76.8,55.0,29.52,SW,232,2.0,14.0,47,0.00,,,0.02,Wunderground v.1.13,2013-06-24 16:15:00,
2013-06-24 10:25:00,77.4,55.6,29.52,South,176,0.0,14.0,47,0.00,,,0.02,Wunderground v.1.13,2013-06-24 16:25:00,
2013-06-24 10:30:00,77.9,54.8,29.52,WSW,238,0.0,14.0,45,0.00,,,0.02,Wunderground v.1.13,2013-06-24 16:30:00,
2013-06-24 10:35:00,78.3,55.2,29.52,SSW,210,0.0,14.0,45,0.00,,,0.02,Wunderground v.1.13,2013-06-24 16:35:00,
2013-06-24 10:39:00,77.9,54.8,29.52,West,259,2.0,2.0,45,0.00,,,0.02,Wunderground v.1.13,2013-06-24 16:39:00,
2013-06-24 10:50:00,78.1,55.0,29.52,SSW,198,0.0,14.0,45,0.00,,,0.02,Wunderground v.1.13,2013-06-24 16:50:00,
2013-06-24 10:55:00,78.3,54.6,29.52,SW,221,0.0,14.0,44,0.00,,,0.02,Wunderground v.1.13,2013-06-24 16:55:00,
2013-06-24 11:00:00,78.5,54.8,29.52,SSW,202,1.0,14.0,44,0.00,,,0.02,Wunderground v.1.13,2013-06-24 17:00:00,
2013-06-24 11:04:00,78.3,56.4,29.51,South,184,1.0,1.0,47,0.00,,,0.02,Wunderground v.1.13,2013-06-24 17:04:00,
2013-06-24 11:09:00,78.8,55.0,29.51,SSE,162,1.0,1.0,44,0.00,,,0.02,Wunderground v.1.13,2013-06-24 17:09:00,
2013-06-24 11:14:00,79.6,55.8,29.51,South,187,0.0,14.0,44,0.00,,,0.02,Wunderground v.1.13,2013-06-24 17:14:00,
2013-06-24 11:20:00,79.6,55.1,29.51,SSE,168,0.0,14.0,43,0.00,,,0.02,Wunderground v.1.13,2013-06-24 17:20:00,
2013-06-24 11:30:00,80.3,55.1,29.51,SSE,163,0.0,14.0,42,0.00,,,0.02,Wunderground v.1.13,2013-06-24 17:30:00,
2013-06-24 11:34:00,80.1,55.6,29.51,SSW,192,0.0,14.0,43,0.00,,,0.02,Wunderground v.1.13,2013-06-24 17:34:00,
2013-06-24 11:40:00,80.3,55.8,29.51,SSE,168,0.0,14.0,43,0.00,,,0.02,Wunderground v.1.13,2013-06-24 17:40:00,
2013-06-24 11:45:00,80.1,55.6,29.51,South,190,1.0,1.0,43,0.00,,,0.02,Wunderground v.1.13,2013-06-24 17:45:00,
2013-06-24 11:50:00,80.5,56.6,29.50,SSE,159,1.0,1.0,44,0.00,,,0.02,Wunderground v.1.13,2013-06-24 17:50:00,
2013-06-24 12:04:00,80.7,56.8,29.50,SSE,167,0.0,14.0,44,0.00,,,0.02,Wunderground v.1.13,2013-06-24 18:04:00,
2013-06-24 12:09:00,80.7,56.8,29.50,SSE,157,1.0,1.0,44,0.00,,,0.02,Wunderground v.1.13,2013-06-24 18:09:00,
2013-06-24 12:15:00,80.9,56.9,29.50,South,176,1.0,1.0,44,0.00,,,0.02,Wunderground v.1.13,2013-06-24 18:15:00,
2013-06-24 12:25:00,81.6,58.2,29.50,South,183,1.0,1.0,45,0.00,,,0.02,Wunderground v.1.13,2013-06-24 18:25:00,
2013-06-24 12:29:00,81.8,57.8,29.50,SE,145,1.0,14.0,44,0.00,,,0.02,Wunderground v.1.13,2013-06-24 18:29:00,
2013-06-24 12:45:00,81.6,56.9,29.49,SSE,163,2.0,2.0,43,0.00,,,0.02,Wunderground v.1.13,2013-06-24 18:45:00,
2013-06-24 12:50:00,82.0,57.9,29.49,South,188,2.0,2.0,44,0.00,,,0.02,Wunderground v.1.13,2013-06-24 18:50:00,
2013-06-24 12:55:00,81.2,57.2,29.49,South,190,4.0,4.0,44,0.00,,,0.02,Wunderground v.1.13,2013-06-24 18:55:00,
2013-06-24 12:59:00,81.4,57.4,29.49,South,187,5.0,5.0,44,0.00,,,0.02,Wunderground v.1.13,2013-06-24 18:59:00,
2013-06-24 13:04:00,81.8,57.8,29.49,SSE,156,3.0,3.0,44,0.00,,,0.02,Wunderground v.1.13,2013-06-24 19:04:00,
2013-06-24 13:10:00,82.2,57.5,29.49,SSE,153,1.0,1.0,43,0.00,,,0.02,Wunderground v.1.13,2013-06-24 19:10:00,
2013-06-24 13:15:00,83.0,58.8,29.49,SSE,164,0.0,14.0,44,0.00,,,0.02,Wunderground v.1.13,2013-06-24 19:15:00,
2013-06-24 13:25:00,82.6,58.5,29.48,SSE,163,1.0,1.0,44,0.00,,,0.02,Wunderground v.1.13,2013-06-24 19:25:00,
2013-06-24 13:34:00,82.8,58.0,29.48,SE,139,2.0,2.0,43,0.00,,,0.02,Wunderground v.1.13,2013-06-24 19:34:00,
2013-06-24 13:40:00,83.0,57.5,29.48,South,171,1.0,1.0,42,0.00,,,0.02,Wunderground v.1.13,2013-06-24 19:40:00,
2013-06-24 13:45:00,83.0,58.2,29.48,South,182,0.0,14.0,43,0.00,,,0.02,Wunderground v.1.13,2013-06-24 19:45:00,
2013-06-24 13:50:00,83.4,57.9,29.47,SE,146,1.0,14.0,42,0.00,,,0.02,Wunderground v.1.13,2013-06-24 19:50:00,
2013-06-24 13:54:00,82.8,57.4,29.47,SSE,153,2.0,2.0,42,0.00,,,0.02,Wunderground v.1.13,2013-06-24 19:54:00,
2013-06-24 13:59:00,83.6,59.4,29.47,SSE,154,1.0,14.0,44,0.00,,,0.02,Wunderground v.1.13,2013-06-24 19:59:00,
2013-06-24 14:10:00,84.5,59.5,29.47,SSE,157,0.0,14.0,43,0.00,,,0.02,Wunderground v.1.13,2013-06-24 20:10:00,
2013-06-24 14:15:00,84.1,59.8,29.47,SSE,161,0.0,14.0,44,0.00,,,0.02,Wunderground v.1.13,2013-06-24 20:15:00,
2013-06-24 14:25:00,84.7,59.1,29.46,South,172,2.0,14.0,42,0.00,,,0.02,Wunderground v.1.13,2013-06-24 20:25:00,
2013-06-24 14:34:00,84.7,59.7,29.46,SE,140,1.0,1.0,43,0.00,,,0.02,Wunderground v.1.13,2013-06-24 20:34:00,
2013-06-24 14:40:00,84.7,58.4,29.46,SSE,153,2.0,2.0,41,0.00,,,0.02,Wunderground v.1.13,2013-06-24 20:40:00,
2013-06-24 14:45:00,84.7,58.4,29.46,SE,142,2.0,2.0,41,0.00,,,0.02,Wunderground v.1.13,2013-06-24 20:45:00,
2013-06-24 14:50:00,84.5,58.2,29.45,SE,137,1.0,1.0,41,0.00,,,0.02,Wunderground v.1.13,2013-06-24 20:50:00,
2013-06-24 14:54:00,85.1,58.1,29.45,SSE,152,1.0,1.0,40,0.00,,,0.02,Wunderground v.1.13,2013-06-24 20:54:00,
2013-06-24 14:59:00,84.9,57.2,29.45,SSW,194,1.0,1.0,39,0.00,,,0.02,Wunderground v.1.13,2013-06-24 20:59:00,
2013-06-24 15:10:00,84.9,57.2,29.45,SE,142,0.0,14.0,39,0.00,,,0.02,Wunderground v.1.13,2013-06-24 21:10:00,
2013-06-24 15:25:00,85.3,56.8,29.44,South,188,2.0,2.0,38,0.00,,,0.02,Wunderground v.1.13,2013-06-24 21:25:00,
2013-06-24 15:29:00,85.3,58.9,29.44,SSE,167,1.0,1.0,41,0.00,,,0.02,Wunderground v.1.13,2013-06-24 21:29:00,
2013-06-24 15:40:00,84.9,57.9,29.44,SSE,165,2.0,2.0,40,0.00,,,0.02,Wunderground v.1.13,2013-06-24 21:40:00,
2013-06-24 15:45:00,85.5,57.7,29.44,SSE,160,3.0,14.0,39,0.00,,,0.02,Wunderground v.1.13,2013-06-24 21:45:00,
2013-06-24 15:50:00,85.3,57.5,29.43,South,183,2.0,2.0,39,0.00,,,0.02,Wunderground v.1.13,2013-06-24 21:50:00,
2013-06-24 15:54:00,85.5,59.1,29.43,SE,136,2.0,2.0,41,0.00,,,0.02,Wunderground v.1.13,2013-06-24 21:54:00,
2013-06-24 16:00:00,85.7,59.3,29.43,SSW,209,0.0,14.0,41,0.00,,,0.02,Wunderground v.1.13,2013-06-24 22:00:00,
2013-06-24 16:05:00,85.1,59.4,29.42,South,180,1.0,1.0,42,0.00,,,0.02,Wunderground v.1.13,2013-06-24 22:05:00,
2013-06-24 16:10:00,85.1,60.1,29.42,SSE,161,2.0,2.0,43,0.00,,,0.02,Wunderground v.1.13,2013-06-24 22:10:00,
2013-06-24 16:14:00,85.5,60.4,29.42,SE,136,1.0,1.0,43,0.00,,,0.02,Wunderground v.1.13,2013-06-24 22:14:00,
2013-06-24 16:20:00,85.9,60.8,29.42,SSE,157,1.0,1.0,43,0.00,,,0.02,Wunderground v.1.13,2013-06-24 22:20:00,
2013-06-24 16:25:00,86.3,61.2,29.42,SE,138,1.0,1.0,43,0.00,,,0.02,Wunderground v.1.13,2013-06-24 22:25:00,
2013-06-24 16:35:00,86.5,61.3,29.41,SSE,168,0.0,14.0,43,0.00,,,0.02,Wunderground v.1.13,2013-06-24 22:35:00,
2013-06-24 16:44:00,87.2,61.3,29.41,SSE,147,1.0,14.0,42,0.00,,,0.02,Wunderground v.1.13,2013-06-24 22:44:00,
2013-06-24 16:55:00,86.5,60.0,29.40,SE,139,3.0,3.0,41,0.00,,,0.02,Wunderground v.1.13,2013-06-24 22:55:00,
2013-06-24 17:04:00,87.2,60.6,29.39,SSE,155,1.0,14.0,41,0.00,,,0.02,Wunderground v.1.13,2013-06-24 23:04:00,
2013-06-24 17:15:00,86.7,60.2,29.39,SSE,151,2.0,2.0,41,0.00,,,0.02,Wunderground v.1.13,2013-06-24 23:15:00,
2013-06-24 17:24:00,86.7,60.2,29.39,SSE,161,1.0,14.0,41,0.00,,,0.02,Wunderground v.1.13,2013-06-24 23:24:00,
2013-06-24 17:34:00,86.5,60.0,29.38,SSE,154,1.0,1.0,41,0.00,,,0.02,Wunderground v.1.13,2013-06-24 23:34:00,
2013-06-24 17:40:00,86.5,61.3,29.38,SSE,157,1.0,1.0,43,0.00,,,0.02,Wunderground v.1.13,2013-06-24 23:40:00,
2013-06-24 17:45:00,86.5,60.7,29.38,SE,146,1.0,1.0,42,0.00,,,0.02,Wunderground v.1.13,2013-06-24 23:45:00,
2013-06-24 17:55:00,86.3,61.2,29.38,South,185,2.0,2.0,43,0.00,,,0.02,Wunderground v.1.13,2013-06-24 23:55:00,
2013-06-24 18:00:00,86.3,61.2,29.38,SSE,162,3.0,3.0,43,0.00,,,0.02,Wunderground v.1.13,2013-06-25 00:00:00,
2013-06-24 18:05:00,86.1,61.0,29.38,SSE,155,2.0,2.0,43,0.00,,,0.02,Wunderground v.1.13,2013-06-25 00:05:00,
2013-06-24 18:10:00,86.1,61.6,29.38,SSE,160,1.0,1.0,44,0.00,,,0.02,Wunderground v.1.13,2013-06-25 00:10:00,
2013-06-24 18:14:00,86.3,62.5,29.38,SE,139,0.0,14.0,45,0.00,,,0.02,Wunderground v.1.13,2013-06-25 00:14:00,
2013-06-24 18:35:00,85.9,61.5,29.38,SSE,163,1.0,1.0,44,0.00,,,0.02,Wunderground v.1.13,2013-06-25 00:35:00,
2013-06-24 18:39:00,85.9,62.1,29.38,SSE,157,1.0,1.0,45,0.00,,,0.02,Wunderground v.1.13,2013-06-25 00:39:00,
2013-06-24 18:44:00,85.7,61.9,29.38,SSE,154,1.0,1.0,45,0.00,,,0.02,Wunderground v.1.13,2013-06-25 00:44:00,
2013-06-24 18:50:00,85.7,62.5,29.38,SE,142,1.0,1.0,46,0.00,,,0.02,Wunderground v.1.13,2013-06-25 00:50:00,
2013-06-24 18:55:00,85.7,62.5,29.38,SSE,149,0.0,14.0,46,0.00,,,0.02,Wunderground v.1.13,2013-06-25 00:55:00,
2013-06-24 19:05:00,85.5,63.6,29.38,SE,146,1.0,1.0,48,0.00,,,0.02,Wunderground v.1.13,2013-06-25 01:05:00,
2013-06-24 19:09:00,85.3,63.4,29.38,SE,126,0.0,14.0,48,0.00,,,0.02,Wunderground v.1.13,2013-06-25 01:09:00,
2013-06-24 19:20:00,84.7,64.6,29.37,East,79,0.0,14.0,51,0.00,,,0.02,Wunderground v.1.13,2013-06-25 01:20:00,
2013-06-24 19:25:00,84.3,64.8,29.37,ESE,121,0.0,14.0,52,0.00,,,0.02,Wunderground v.1.13,2013-06-25 01:25:00,
2013-06-24 19:35:00,83.4,65.5,29.37,SE,139,0.0,14.0,55,0.00,,,0.02,Wunderground v.1.13,2013-06-25 01:35:00,
2013-06-24 19:39:00,83.0,65.2,29.37,ENE,76,0.0,14.0,55,0.00,,,0.02,Wunderground v.1.13,2013-06-25 01:39:00,
2013-06-24 19:45:00,82.4,65.6,29.37,East,79,0.0,14.0,57,0.00,,,0.02,Wunderground v.1.13,2013-06-25 01:45:00,
2013-06-24 19:50:00,81.8,65.1,29.37,ENE,70,0.0,14.0,57,0.00,,,0.02,Wunderground v.1.13,2013-06-25 01:50:00,
2013-06-24 19:59:00,80.7,66.5,29.37,ENE,74,0.0,14.0,62,0.00,,,0.02,Wunderground v.1.13,2013-06-25 01:59:00,
2013-06-24 20:09:00,79.6,67.2,29.37,ENE,68,1.0,1.0,66,0.00,,,0.02,Wunderground v.1.13,2013-06-25 02:09:00,
2013-06-24 20:15:00,79.2,67.3,29.37,ENE,75,0.0,14.0,67,0.00,,,0.02,Wunderground v.1.13,2013-06-25 02:15:00,
2013-06-24 20:20:00,78.8,67.3,29.37,ENE,63,0.0,14.0,68,0.00,,,0.02,Wunderground v.1.13,2013-06-25 02:20:00,
2013-06-24 20:35:00,77.9,67.3,29.37,East,82,0.0,14.0,70,0.00,,,0.02,Wunderground v.1.13,2013-06-25 02:35:00,
2013-06-24 20:39:00,77.7,67.1,29.37,East,82,0.0,14.0,70,0.00,,,0.02,Wunderground v.1.13,2013-06-25 02:39:00,
2013-06-24 20:49:00,77.4,67.3,29.37,ENE,61,0.0,14.0,71,0.00,,,0.02,Wunderground v.1.13,2013-06-25 02:49:00,
2013-06-24 20:55:00,77.2,67.1,29.37,ENE,69,0.0,14.0,71,0.00,,,0.02,Wunderground v.1.13,2013-06-25 02:55:00,
2013-06-24 21:04:00,77.0,66.9,29.38,ENE,70,0.0,14.0,71,0.00,,,0.02,Wunderground v.1.13,2013-06-25 03:04:00,
2013-06-24 21:09:00,76.8,66.7,29.38,ENE,65,0.0,14.0,71,0.00,,,0.02,Wunderground v.1.13,2013-06-25 03:09:00,
2013-06-24 21:20:00,76.5,66.8,29.39,ENE,58,0.0,14.0,72,0.00,,,0.02,Wunderground v.1.13,2013-06-25 03:20:00,
2013-06-24 21:25:00,76.1,66.8,29.39,ENE,57,0.0,14.0,73,0.00,,,0.02,Wunderground v.1.13,2013-06-25 03:25:00,
2013-06-24 21:29:00,76.0,67.1,29.39,ENE,65,0.0,14.0,74,0.00,,,0.02,Wunderground v.1.13,2013-06-25 03:29:00,
2013-06-24 21:34:00,76.0,67.5,29.39,ENE,66,0.0,14.0,75,0.00,,,0.02,Wunderground v.1.13,2013-06-25 03:34:00,
2013-06-24 21:50:00,75.6,67.5,29.40,ENE,77,0.0,14.0,76,0.00,,,0.02,Wunderground v.1.13,2013-06-25 03:50:00,
2013-06-24 22:04:00,75.4,67.7,29.40,NE,48,2.0,2.0,77,0.00,,,0.02,Wunderground v.1.13,2013-06-25 04:04:00,
2013-06-24 22:10:00,75.1,67.8,29.40,SE,140,1.0,1.0,78,0.00,,,0.02,Wunderground v.1.13,2013-06-25 04:10:00,
2013-06-24 22:20:00,74.6,68.0,29.40,East,96,0.0,14.0,80,0.00,,,0.02,Wunderground v.1.13,2013-06-25 04:20:00,
2013-06-24 22:24:00,74.4,68.2,29.40,ENE,67,0.0,14.0,81,0.00,,,0.02,Wunderground v.1.13,2013-06-25 04:24:00,
2013-06-24 22:35:00,73.9,68.1,29.40,East,91,0.0,14.0,82,0.00,,,0.02,Wunderground v.1.13,2013-06-25 04:35:00,
2013-06-24 22:40:00,73.7,67.9,29.40,East,91,0.0,14.0,82,0.00,,,0.02,Wunderground v.1.13,2013-06-25 04:40:00,
2013-06-24 22:45:00,73.3,67.8,29.40,East,91,0.0,14.0,83,0.00,,,0.02,Wunderground v.1.13,2013-06-25 04:45:00,
2013-06-24 22:49:00,73.3,68.2,29.40,East,90,0.0,14.0,84,0.00,,,0.02,Wunderground v.1.13,2013-06-25 04:49:00,
2013-06-24 22:54:00,73.2,68.1,29.40,East,90,0.0,14.0,84,0.00,,,0.02,Wunderground v.1.13,2013-06-25 04:54:00,
2013-06-24 23:00:00,73.2,68.4,29.40,East,90,0.0,14.0,85,0.00,,,0.02,Wunderground v.1.13,2013-06-25 05:00:00,
2013-06-24 23:05:00,73.0,68.2,29.40,East,86,0.0,14.0,85,0.00,,,0.02,Wunderground v.1.13,2013-06-25 05:05:00,
2013-06-24 23:10:00,73.2,68.4,29.40,NNE,26,0.0,14.0,85,0.00,,,0.02,Wunderground v.1.13,2013-06-25 05:10:00,
2013-06-24 23:15:00,73.2,68.4,29.40,NNE,13,1.0,14.0,85,0.00,,,0.02,Wunderground v.1.13,2013-06-25 05:15:00,
2013-06-24 23:19:00,72.7,68.3,29.41,NW,319,3.0,14.0,86,0.00,,,0.02,Wunderground v.1.13,2013-06-25 05:19:00,
2013-06-24 23:24:00,72.7,68.6,29.41,NE,40,3.0,3.0,87,0.00,,,0.02,Wunderground v.1.13,2013-06-25 05:24:00,
2013-06-24 23:30:00,72.8,68.4,29.41,NE,44,1.0,14.0,86,0.00,,,0.02,Wunderground v.1.13,2013-06-25 05:30:00,
2013-06-24 23:35:00,73.0,68.6,29.41,NE,53,1.0,1.0,86,0.00,,,0.02,Wunderground v.1.13,2013-06-25 05:35:00,
2013-06-24 23:39:00,73.0,68.6,29.41,NNE,12,1.0,1.0,86,0.00,,,0.02,Wunderground v.1.13,2013-06-25 05:39:00,
2013-06-24 23:45:00,72.8,68.4,29.41,NE,45,1.0,1.0,86,0.00,,,0.02,Wunderground v.1.13,2013-06-25 05:45:00,
2013-06-24 23:50:00,73.0,68.6,29.41,East,95,1.0,14.0,86,0.00,,,0.02,Wunderground v.1.13,2013-06-25 05:50:00,
2013-06-24 23:55:00,73.3,68.5,29.41,ENE,64,2.0,2.0,85,0.00,,,0.02,Wunderground v.1.13,2013-06-25 05:55:00,
2013-06-24 23:59:00,73.5,68.4,29.41,NE,52,1.0,1.0,84,0.00,,,0.02,Wunderground v.1.13,2013-06-25 05:59:00,